Flag for U.S.A. Weather past 2 weeks in Palestine, Texas, U.S.A.

Now
68 °F

Clear.


Feels Like: 68 °F
Forecast: 69 / 90 °F
Wind: No wind

Location: Palestine Municipal Airport

Current Time: Sep 21, 2014 at 3:48:27 AM

Latest Report: Sep 21, 2014 at 3:15 AM


Visibility: 10 mi

Pressure: 30.03 "Hg

Humidity: 94%

Dew point: 67 °F

Location of PalestineLocation

Historic Weather in Palestine — Graph

°F

Palestine temperature yesterday

Maximum temperature yesterday: 89 °F (at 3:15 PM)
Minimum temperature yesterday: 71 °F (at 6:15 AM)
Average temperature yesterday: 78 °F

Past Weeks' High & Low Weather Summary

 TemperatureHumidityPressure
High95 °F (Sep 6, 3:35 PM)100% (Sep 6, 6:35 AM)30.25 "Hg (Sep 6, 6:35 AM)
Low62 °F (Sep 14, 7:35 AM)39% (Sep 6, 3:35 PM)29.81 "Hg (Sep 10, 7:15 PM)
Average78 °F82%30.02 "Hg
* Reported Sep 6 2:15 AM — Sep 21 2:35 AM, Palestine, Weather by CustomWeather, © 2014

Note: Actual official high and low records may vary slightly from our data, if they occured in-between our weather recording intervals... More about our weather records

Advertising

Palestine weather history for previous 24 hours

 ConditionsComfort  
Time TempWeatherWind HumidityBarometerVisibility
2:35 AM
Sep 21
69 °FClear.No wind95%30.02 "Hg10 mi
2:15 AM70 °FClear.No wind91%30.02 "Hg10 mi
1:55 AM72 °FClear.No wind87%30.02 "Hg10 mi
1:35 AM71 °FClear.No wind90%30.02 "Hg10 mi
12:55 AM71 °FClear.No wind90%30.01 "Hg10 mi
12:35 AM70 °FClear.No wind93%30.02 "Hg10 mi
12:15 AM71 °FClear.No wind92%30.02 "Hg10 mi
11:55 PM
Sep 20
71 °FClear.No wind92%30.02 "Hg10 mi
11:15 PM72 °FClear.No wind91%30.02 "Hg10 mi
10:55 PM73 °FClear.No wind83%30.02 "Hg10 mi
10:15 PM74 °FClear.No wind82%30.01 "Hg10 mi
9:55 PM72 °FClear.No wind87%30.00 "Hg10 mi
9:35 PM73 °FClear.No wind89%30.00 "Hg10 mi
9:15 PM73 °FClear.No wind88%29.99 "Hg10 mi
8:55 PM74 °FClear.No wind88%29.98 "Hg10 mi
8:35 PM74 °FClear.No wind87%29.98 "Hg10 mi
8:15 PM76 °FSunny.No wind80%29.97 "Hg10 mi
7:55 PM78 °FSunny.No wind73%29.96 "Hg10 mi
7:35 PM81 °FSunny.No wind64%29.96 "Hg10 mi
7:15 PM83 °FSunny.No wind60%29.96 "Hg10 mi
6:55 PM84 °FSunny.3 mph55%29.95 "Hg10 mi
6:35 PM85 °FSunny.5 mph53%29.96 "Hg10 mi
6:15 PM87 °FSunny.7 mph48%29.96 "Hg10 mi
5:55 PM87 °FSunny.6 mph46%29.96 "Hg10 mi
5:35 PM88 °FSunny.8 mph46%29.95 "Hg10 mi
5:15 PM88 °FScattered clouds.10 mph48%29.95 "Hg10 mi
4:55 PM88 °FScattered clouds.8 mph47%29.96 "Hg10 mi
4:35 PM88 °FSunny.8 mph46%29.96 "Hg10 mi
3:55 PM88 °FSunny.7 mph48%29.97 "Hg10 mi
3:35 PM88 °FScattered clouds.8 mph48%29.97 "Hg10 mi
3:15 PM89 °FScattered clouds.7 mph49%29.98 "Hg10 mi
2:55 PM88 °FScattered clouds.8 mph48%29.99 "Hg10 mi
2:35 PM87 °FScattered clouds.9 mph52%29.99 "Hg10 mi
2:15 PM87 °FScattered clouds.9 mph51%30.00 "Hg10 mi
1:55 PM87 °FSunny.9 mph50%30.00 "Hg10 mi
1:35 PM87 °FSunny.10 mph51%30.01 "Hg10 mi
1:15 PM87 °FSunny.12 mph51%30.01 "Hg10 mi
12:55 PM86 °FSunny.13 mph52%30.02 "Hg10 mi
8:15 AM73 °FSunny.5 mph94%30.01 "Hg10 mi
7:55 AM72 °FClear.No wind96%30.01 "Hg10 mi
7:35 AM71 °FClear.5 mph97%30.00 "Hg10 mi
7:15 AM71 °FPassing clouds.3 mph97%30.00 "Hg10 mi
6:55 AM71 °FPassing clouds.No wind98%30.00 "Hg10 mi
6:35 AM71 °FPassing clouds.No wind97%29.99 "Hg10 mi
6:15 AM71 °FPassing clouds.No wind99%29.99 "Hg10 mi
5:55 AM71 °FClear.3 mph98%29.98 "Hg10 mi
5:35 AM71 °FClear.No wind98%29.98 "Hg10 mi
5:15 AM72 °FClear.No wind97%29.97 "Hg10 mi
4:55 AM71 °FClear.No wind99%29.97 "Hg7 mi
4:35 AM72 °FClear.No wind96%29.97 "Hg10 mi
4:15 AM71 °FClear.No wind97%29.97 "Hg10 mi
3:55 AM72 °FClear.No wind97%29.97 "Hg10 mi
3:35 AM72 °FClear.No wind97%29.97 "Hg10 mi
3:15 AM72 °FPassing clouds.No wind95%29.97 "Hg10 mi
Weather by CustomWeather, © 2014

See weather overviewHow to use our weather pages